This is the latest recevied weather packets stored in our database for station/object YM2KRB-11. If no packets are shown the sender has not sent any weather packets the latest 10 day(s).
| Time | Temp. | Humidity | Pressure | Rain* | Wind** | Luminosity | Snow |
|---|---|---|---|---|---|---|---|
| 1777855362 | 7.78° C | 75% | 932.9 hPa | - | - | - | - |
| 1777854162 | 8.89° C | 72% | 932.9 hPa | - | - | - | - |
| 1777852961 | 9.44° C | 72% | 932.9 hPa | - | - | - | - |
| 1777851760 | 8.89° C | 72% | 933.1 hPa | - | - | - | - |
| 1777850559 | 10° C | 68% | 933 hPa | - | - | - | - |
| 1777849359 | 8.89° C | 72% | 933 hPa | - | - | - | - |
| 1777848158 | 9.44° C | 71% | 933 hPa | - | - | - | - |
| 1777846957 | 8.89° C | 75% | 933.2 hPa | - | - | - | - |
| 1777845756 | 9.44° C | 70% | 933.4 hPa | - | - | - | - |
| 1777844555 | 9.44° C | 70% | 933.6 hPa | - | - | - | - |
| 1777843355 | 8.89° C | 72% | 933.6 hPa | - | - | - | - |
| 1777842154 | 9.44° C | 68% | 933.5 hPa | - | - | - | - |
| 1777840953 | 15° C | 51% | 933.5 hPa | - | - | - | - |
| 1777839752 | 18.33° C | 42% | 933.5 hPa | - | - | - | - |
| 1777838552 | 12.78° C | 53% | 933.4 hPa | - | - | - | - |
| 1777837351 | 13.33° C | 53% | 933.7 hPa | - | - | - | - |
| 1777836150 | 15.56° C | 49% | 933.9 hPa | - | - | - | - |
| 1777834949 | 10.56° C | 59% | 934 hPa | - | - | - | - |
| 1777833748 | 10.56° C | 58% | 934.4 hPa | - | - | - | - |
| 1777832548 | 11.11° C | 58% | 934.3 hPa | - | - | - | - |
| 1777831347 | 11.11° C | 56% | 934.2 hPa | - | - | - | - |
| 1777830146 | 12.78° C | 55% | 934 hPa | - | - | - | - |
| 1777828945 | 11.67° C | 53% | 934 hPa | - | - | - | - |
| 1777827744 | 11.67° C | 53% | 933.9 hPa | - | - | - | - |
| 1777826544 | 11.67° C | 53% | 934.1 hPa | - | - | - | - |
* Rain since midnight (hover to see other rain measurements)
** Current wind speed in m/s (hover to see current wind gust speed)